Hourly Data Report for May 09, 2012

All times are specified in Local Standard Time (LST). Add 1 hour to adjust for Daylight Saving Time where and when it is observed.

YARMOUTH A
NOVA SCOTIA

43°49'37.000" N
66°05'17.000" W
42.90 m
8206495
71603
YQI

Download Data

Hourly Data (May 2012)
Hourly Data Report for May 9, 2012
Temp Definition
°C
Dew Point Temp Definition
°C
Rel Hum Definition
%
Wind Dir Definition
10's deg

Wind Spd Definition
km/h
Visibility Definition
km
Stn Press Definition
kPa
Hmdx Definition


Wind Chill Definition


Weather Definition


TIME
00:00 Legend Double Dagger 8.1 7.2 94 15 22 10.0 101.27     LegendNANA
01:00 Legend Double Dagger 8.1 6.7 91 16 23 10.0 101.19     LegendNANA
02:00 Legend Double Dagger 7.9 6.5 91 16 23 10.0 101.16     Rain Showers
03:00 Legend Double Dagger 7.8 7.1 95 16 22 10.0 101.09     Rain Showers
04:00 Legend Double Dagger 8.3 7.9 97 17 24 10.0 101.03     Rain Showers
05:00 Legend Double Dagger 8.9 8.6 98 17 24 10.0 100.96     Rain Showers
06:00 Legend Double Dagger 9.0 8.7 98 17 26 10.0 100.94     Rain Showers
07:00 Legend Double Dagger 9.6 9.3 98 18 24 4.8 100.89     Rain Showers,Fog
08:00 Legend Double Dagger 9.7 9.4 98 19 32 4.8 100.83     Rain Showers,Fog
09:00 Legend Double Dagger 10.1 9.7 97 19 35 6.4 100.79     Rain Showers,Fog
10:00 Legend Double Dagger 9.9 9.6 98 19 30 4.8 100.80     Rain Showers,Fog
11:00 Legend Double Dagger 10.2 9.8 97 18 28 4.8 100.74     Rain Showers,Fog
12:00 Legend Double Dagger 10.1 9.7 97 18 27 4.8 100.69     Rain Showers,Fog
13:00 Legend Double Dagger 10.5 10.1 97 19 32 6.4 100.63     Rain Showers,Fog
14:00 Legend Double Dagger 10.4 10.1 98 18 28 4.8 100.59     Rain Showers,Fog
15:00 Legend Double Dagger 10.1 9.8 98 18 27 4.8 100.53     Rain Showers,Fog
16:00 Legend Double Dagger 10.3 10.2 99 19 31 4.8 100.49     Rain Showers,Fog
17:00 Legend Double Dagger 10.4 10.3 99 20 31 3.2 100.47     Rain,Fog
18:00 Legend Double Dagger 10.8 10.7 99 19 33 4.0 100.43     Rain,Fog
19:00 Legend Double Dagger 10.4 10.3 99 19 33 4.0 100.44     Rain,Fog
20:00 Legend Double Dagger 10.1 9.8 98 18 30 6.4 100.42     Rain,Fog
21:00 Legend Double Dagger 10.4 10.1 98 19 26 4.8 100.42     Moderate Rain,Fog
22:00 Legend Double Dagger 10.1 10.0 99 18 28 6.4 100.36     Rain,Fog
23:00 Legend Double Dagger 10.3 10.2 99 18 28 4.8 100.31     Rain,Fog

Notes on Data Quality.

Legend

  • E = Estimated
  • M = Missing
  • NA = Not Available
  • ‡ = Partner data that is not subject to review by the National Climate Archives
Date modified: